Location: Hohe Wand Waldeggerhaus
(47.8500°N, 16.0440°E)
Time: 16:20:27
(UTC+01:00)

BlueWalker 3 - Visible Passes

Search period start: 30 January 2023 00:00
Search period end: 09 February 2023 00:00
Orbit: 499 x 517 km, 53.2° (Epoch: 29 January)

Date Brightness Start Highest point End Pass type
(mag) Time Alt. Az. Time Alt. Az. Time Alt. Az.
30 Jan 2.0 17:28:06 10° SW 17:31:58 77° SSE 17:35:52 10° ENE visible
30 Jan 2.8 19:07:08 10° W 19:10:44 41° NNW 19:10:44 41° NNW visible
31 Jan 2.8 18:48:13 10° W 18:51:54 40° N 18:52:38 36° NNE visible
31 Jan 5.4 20:27:23 10° WNW 20:27:25 10° WNW 20:27:25 10° WNW visible
01 Feb 2.8 18:29:18 10° W 18:32:59 40° N 18:34:30 27° NE visible
01 Feb 4.8 20:08:27 10° WNW 20:09:18 15° NW 20:09:18 15° NW visible
02 Feb 2.8 18:10:22 10° W 18:14:02 39° N 18:16:21 19° NE visible
02 Feb 4.2 19:49:30 10° WNW 19:51:09 22° NW 19:51:09 22° NW visible
03 Feb 2.8 17:51:25 10° WNW 17:55:05 39° N 17:58:12 13° ENE visible
03 Feb 3.5 19:30:32 10° WNW 19:32:59 31° NW 19:32:59 31° NW visible
04 Feb 2.8 17:32:27 10° WNW 17:36:07 38° N 17:39:47 10° ENE visible
04 Feb 2.7 19:11:33 10° WNW 19:14:50 42° N 19:14:50 42° N visible
05 Feb 2.4 18:52:33 10° WNW 18:56:18 45° NNE 18:56:42 43° NNE visible
05 Feb 5.2 20:31:13 10° WNW 20:31:29 12° WNW 20:31:29 12° WNW visible
06 Feb 2.4 18:33:33 10° WNW 18:37:18 45° NNE 18:38:35 32° ENE visible
06 Feb 4.6 20:12:12 10° WNW 20:13:23 19° WNW 20:13:23 19° WNW visible
07 Feb 2.4 18:14:32 10° WNW 18:18:18 46° NNE 18:20:32 22° E visible
07 Feb 3.8 19:53:12 10° WNW 19:55:20 30° W 19:55:20 30° W visible
08 Feb 2.4 17:55:30 10° WNW 17:59:16 47° NNE 18:02:32 13° E visible
08 Feb 2.9 19:34:10 10° WNW 19:37:20 46° WSW 19:37:20 46° WSW visible
